Find Starlink 6109

NORAD ID: 56094 Int'l Des: 2023-046 Owner: SPXS Country: US Constellation: starlink operational
LEOCIRCULAR

Live Position

Loading 3D Globe...

About Starlink 6109

Description loading...

Upcoming Passes

Passes for default location (London). Set your location on the main map for personalized predictions.

Altitude History

Loading altitude history...

Two-Line Element Set

1 56094U 23046B 26123.61400332 .00001215 00000-0 53632-4 0 9994
2 56094 43.0001 211.1891 0000853 275.9962 84.0792 15.27588129170436
Epoch: May 3, 2026 • Age: 11 hours

Current Status

Altitude 495.2 km
Velocity 7.62 km/s
Sub-Earth Point -41.86°S, 106.85°W
Launch Date Mar 29, 2023
Age 3 years
Type internet

Technical Details

Classification Payload
Mass 305.00 kg
Dry Mass 290.00 kg
Total Mass 305.00 kg
Length 0.20 m
Diameter 2.80 m
Span 9.00 m
Shape Box + pan
Manufacturer SPXS
Bus Type Starlink
Phase Status In Orbit
Owner/State SPXS/US

Most Searched